Regional Weather Roundup
Issued by NWS

Current Version | Previous Version | Graphics & Text | Print | Product List | Glossary On
Versions: 1 2 3 4 5 6 7 8 9 10 11 12 13 14 15 16 17 18 19 20 21 22 23 24 25 26 27 28 29 30 31 32 33 34 35 36 37 38 39 40 41 42 43 44 45 46 47 48 49 50
000
ASUS44 KBMX 140710
RWRAL

ALABAMA REGIONAL WEATHER ROUNDUP
NATIONAL WEATHER SERVICE BIRMINGHAM AL
100 AM CST THU NOV 14 2019

NOTE: "FAIR" INDICATES FEW OR NO CLOUDS BELOW 12,000 FEET
WITH NO SIGNIFICANT WEATHER AND/OR OBSTRUCTIONS TO VISIBILITY.

THE REMARK "TC" DENOTES TEMPERATURE IN DEGREES CELSIUS.

ALZ001>011-014-016>018-020-140800-
NORTH ALABAMA

CITY           SKY/WX    TMP DP  RH WIND       PRES   REMARKS
MUSCLE SHOALS  FAIR      32  29  88 CALM      30.26R
HUNTSVILLE     FAIR      33  25  72 SE3       30.25R
DECATUR        FAIR      35  26  69 CALM      30.28R
HALEYVILLE     FAIR      33  27  78 CALM      30.27R
GADSDEN        FAIR      30  28  92 NE7       30.29F WCI  23
$$

ALZ012-013-022-023-030>036-040>044-140800-
WEST CENTRAL ALABAMA

CITY           SKY/WX    TMP DP  RH WIND       PRES   REMARKS
TUSCALOOSA     FAIR      36  31  82 CALM      30.27R
DEMOPOLIS      FAIR      35  34  94 CALM      30.26R
$$

ALZ015-024>026-033>036-041>044-140800-
CENTRAL ALABAMA

CITY           SKY/WX    TMP DP  RH WIND       PRES   REMARKS
BIRMINGHAM     FAIR      41  22  46 SE9       30.27R
MONTGOMERY     FAIR      38  28  67 E8        30.27F WCI  32
SHELBY CO ARPT FAIR      38  25  59 VRB3      30.26S
MAXWELL AFB    FAIR      41  25  53 E10       30.25F
GREENVILLE     FAIR      39  27  62 E6        30.22F WCI  35
SELMA            N/A     36  30  80 E5        30.25F WCI  32
PRATTVILLE     FAIR      37  28  69 E6        30.26F WCI  33
BESSEMER       FAIR      38  23  55 E8        30.25R WCI  32
TALLADEGA      FAIR      34  26  72 E7        30.28F WCI  27
PELL CITY        N/A     32  32 100 CALM      30.28F
MARION         FAIR      36  30  79 CALM      30.24F
SYLACAUGA      FAIR      37  25  61 SE7       30.26F WCI  31
$$

ALZ019-021-028-029-037-038-045>048-140800-
EAST CENTRAL ALABAMA

CITY           SKY/WX    TMP DP  RH WIND       PRES   REMARKS
ANNISTON       FAIR      36  24  62 NE8       30.29F WCI  30
ALEXANDER CITY MOCLDY    37  26  65 CALM      30.28F
AUBURN         CLOUDY    37  23  56 E8        30.27F WCI  31
$$

ALZ051>064-140800-
SOUTHWEST ALABAMA

CITY           SKY/WX    TMP DP  RH WIND       PRES   REMARKS
MOBILE         FAIR      45  35  68 E9        30.21F
BROOKLEY FIELD FAIR      50  35  56 NE9       30.23F
EVERGREEN      FAIR      39  32  76 CALM      30.24F
$$

ALZ049-050-065>069-140800-
SOUTHEAST ALABAMA

CITY           SKY/WX    TMP DP  RH WIND       PRES   REMARKS
DOTHAN         CLOUDY    43  28  55 E6        30.28S
OZARK          MOCLDY    40  30  67 NE7       30.24F
TROY           CLOUDY    38  30  73 NE3       30.26F
EUFAULA        NOT AVBL
$$



USA.gov is the U.S. government's official web portal to all federal, state and local government web resources and services.